Location: Hawks Ness
(60.2333°N, 1.1667°W)
Time: 13:15:55
(UTC+00:00)

Cosmos 1709 Rocket - Pass Details

Date: 22 October 2019
Orbit: 948 x 1001 km, 82.9° (Epoch: 17 November)

Event Time Altitude Azimuth Distance (km) Brightness Sun altitude
Exits shadow 04:00:39 40° 219° (SW) 1,443 4.5 -22.8°
Maximum altitude 04:03:03 68° 288° (WNW) 1,075 4.0 -22.5°
Drops below altitude 10° 04:09:27 10° 12° (NNE) 2,788 6.7 -21.7°
Sets 04:12:02 0° 15° (NNE) 3,742 7.5 -21.4°
